Regional Weather Roundup
Issued by NWS Charleston, SC

Current Version | Previous Version | Text Only | Print | Product List | Glossary Off
Versions: 1 2 3 4 5 6 7 8 9 10 11 12 13 14 15 16 17 18 19 20 21 22 23 24 25 26 27 28 29 30 31 32 33 34 35 36 37 38 39 40 41 42 43 44 45 46 47 48 49 50
000 ASUS42 KCHS 200310 RWRCHS REGIONAL WEATHER ROUNDUP NATIONAL WEATHER SERVICE CHARLESTON SC 1000 PM EST FRI DEC 19 2014 NOTE: "FAIR" INDICATES FEW OR NO CLOUDS BELOW 12,000 FEET WITH NO SIGNIFICANT WEATHER AND/OR OBSTRUCTIONS TO VISIBILITY. NOT ALL STATIONS ARE QUALITY CONTROLLED BY THE NATIONAL WEATHER SERVICE. USE DATA WITH CAUTION...ESPECIALLY DEWPOINT OBSERVATIONS. SCZ027-030-031-034>040-042>050-200400- ...SOUTHEAST SOUTH CAROLINA... CITY SKY/WX TMP DP RH WIND PRES REMARKS N CHARLESTON MOCLDY 50 43 77 CALM 30.15S WATERFRONT PRK N/A 52 N/A N/A N6 N/A MOUNT PLEASANT FAIR 48 45 87 CALM 30.15S PINOPOLIS N/A 52 43 71 VRB2 30.07S MONCKS CORNER FAIR 50 43 76 CALM 30.15S SUMMERVILLE NOT AVBL BEAUFORT MCAS MOCLDY 52 48 86 NE3 30.14S BEAUFORT ARPT FAIR 52 52 100 NE3 30.14S HILTON HEAD IS MOCLDY 52 52 100 CALM 30.16R WALTERBORO MOCLDY 48 N/A N/A CALM 30.16S ALLENDALE FAIR 48 45 87 CALM 30.13F ...SOUTHERN MIDLANDS AND PEE DEE... CITY SKY/WX TMP DP RH WIND PRES REMARKS GEORGETOWN NOT AVBL KINGSTREE NOT AVBL ORANGEBURG CLOUDY 50 42 74 E5 30.14S BARNWELL FAIR 52 45 76 CALM 30.15S AIKEN FAIR 48 43 81 E3 30.16S MANNING NOT AVBL COLUMBIA CLOUDY 50 40 68 CALM 30.15S SUMTER CLOUDY 46 36 67 E2 30.15R FLORENCE MOCLDY 46 35 65 CALM 30.16S MYRTLE BEACH CLEAR 46 39 76 N6 30.18R N MYRTLE BEACH MOCLDY 43 39 86 NE6 30.17R $$ GAZ063-065-086>088-099>101-113>116-118-119-134>141-150-200400- ...SOUTHEAST GEORGIA... CITY SKY/WX TMP DP RH WIND PRES REMARKS SAVANNAH ARPT MOCLDY 50 46 86 CALM 30.15S HUNTER AAF CLOUDY 51 47 87 NW1 30.12S FORT STEWART CLOUDY 49 45 88 CALM 30.13R STATESBORO CLOUDY 47 47 100 CALM 30.14S SYLVANIA CLOUDY 48 46 95 CALM 30.14S CLAXTON MOCLDY 46 46 100 CALM 30.15R ...CSRA...CENTRAL AND FAR SOUTHEAST GEORGIA... CITY SKY/WX TMP DP RH WIND PRES REMARKS THOMSON CLOUDY 49 46 90 CALM 30.17F AUGUSTA-BUSH CLOUDY 48 42 80 CALM 30.13F AUGUSTA-DANIEL CLOUDY 54 42 64 CALM 30.13S SWAINSBORO FAIR 50 48 93 CALM 30.15S VIDALIA CLOUDY 50 46 87 CALM 30.15S EASTMAN CLOUDY 49 49 100 CALM 30.17S HAZLEHURST CLOUDY 51 50 94 CALM 30.13F ALMA CLOUDY 51 45 79 CALM 30.14S WAYCROSS CLOUDY 57 48 72 CALM 30.14F JESUP CLOUDY 54 50 87 CALM 30.15S BAXLEY CLOUDY 52 46 82 CALM 30.14R BRUNSWICK CLOUDY 52 45 76 CALM 30.15R SAINT SIMONS CLOUDY 55 48 77 CALM 30.14R $$ SCZ027-028-034-036>038-045-046-048>050-GAZ119-141-200400- ...LAKE AND SUPPLEMENTAL COASTAL OBSERVATIONS... STATION/POSITION TIME TEMP WIND PRES WAVE SWELL AIR SEA DIR/SP/G HT/PER HT/PER/DIR (UTC) (F) (DEG/KT/KT) (MB) (FT/S) (FT/S/D) UPR LAKE MARION NOT AVBL WINYAH BAY 0200 47 340/ 2 1020.0S LAKE MURRAY 0200 51 CALM / 2 1020.3S ACE BASIN NERRS 0200 50 CALM 1020.0S FORT PULASKI 0300 56 56 20/ 2/ 3 1020.9S SAPELO ISLAND 0200 50 20/ 2 1020.0S $$ ANZ835-935-AMZ111-154-330-350-352-354-370-450-454-472-200400- ...C-MAN AND BUOY OBSERVATIONS... STATION/POSITION TIME TEMP WIND PRES WAVE SWELL AIR SEA DIR/SP/G HT/PER HT/PER/DIR (UTC) (F) (DEG/KT/KT) (MB) (FT/S) (FT/S/D) BUOY 41004 0300 64 68 30/ 4/ 8 1020.2R 2/10 2/10 BUOY 41008 0300 58 57 80/ 4/ 4 1020.4R 1/10 2/110/10 FOLLY BEACH CMAN 0200 56 40/ 10/ 12 1021.3R CAPERS NEARSHORE 0200 56 60/ 12/ 14 N/A FRIPP NEARSHORE NOT AVBL STATION/POSITION TIME TEMP WIND PRES WAVE SWELL AIR SEA DIR/SP/G HT/PER HT/PER/DIR (UTC) (F) (DEG/KT/KT) (MB) (FT/S) (FT/S/D) 5E ST. MARYS GA 0300 60 N/A 1/11 FRYING PAN BUOY 0300 57 60 50/ 10/ 14 1022.2R 2/10 2/110/10 BUOY 41025 0300 46 1023.0R 3/ 6 CAPE LOOKOUT NC 0200 47 20/ 7/ 9 1022.4R BUOY 41002 0155 66 72 10/ 6/ 8 1020.7R 3/11 2/ 90/11 BUOY 41010 0300 71 76 80/ 6/ 8 1019.7F 2/10 2/ 90/10 ST AUGUSTINE FL 0300 64 90/ 2/ 2 1020.0R $$

USA.gov is the U.S. government's official web portal to all federal, state and local government web resources and services.